Theta_e
315 314 313 312 312 309 299 288 280 293 292 279 271 270 274 284 283 285 283 280 277 271 270 267 271 273 278 283 281 274 280 274 269 273 279 280 280 277 279 273 273 276 275 274
315 314 313 312 311 307 294 284 283 293 290 276 269 273 281 283 282 282 283 281 281 278 270 267 270 276 282 283 281 276 278 267 265 268 275 279 277 280 280 280 277 273 271 274
315 314 313 312 311 307 296 288 280 284 287 282 278 272 277 278 284 283 283 282 282 277 271 276 269 277 281 282 282 286 284 275 266 265 272 274 274 277 278 277 273 275 277 278
315 314 313 311 310 307 297 288 284 283 279 280 280 280 280 279 278 282 283 281 281 278 268 271 269 275 278 281 283 281 279 265 267 272 274 275 274 275 276 275 278 276 279 279
315 314 312 311 310 307 295 285 285 282 279 283 281 283 279 279 278 281 280 278 281 279 272 275 268 273 276 277 278 278 279 265 274 269 275 275 274 277 278 279 281 281 282 279
315 314 312 311 309 305 294 290 290 289 285 282 281 280 281 280 282 282 282 281 280 279 280 279 278 280 280 279 276 277 276 270 266 262 272 272 268 278 280 281 283 282 278 280
314 314 312 311 308 305 297 292 292 288 282 283 283 282 282 281 282 280 281 282 280 282 284 281 279 277 279 278 278 280 270 269 273 263 265 261 277 279 281 282 283 284 281 280
314 313 312 311 308 307 297 295 293 290 284 284 284 283 282 282 282 281 281 281 282 283 280 272 262 262 265 265 274 279 280 274 267 262 261 269 277 279 279 279 281 282 279 281
313 313 312 310 308 307 297 296 298 294 286 284 286 284 283 280 278 277 279 281 282 281 276 262 258 260 256 260 263 276 279 279 267 259 263 257 274 279 283 284 277 282 280 280
313 312 311 310 309 307 301 295 297 295 287 286 287 284 283 284 281 278 275 279 278 279 268 255 259 260 262 262 259 266 266 272 266 261 262 265 276 279 283 275 278 282 280 280
312 312 311 310 309 307 302 292 295 295 287 284 286 287 284 282 281 277 276 275 274 269 263 261 260 259 265 263 267 268 266 264 261 267 261 262 278 280 277 281 283 280 279 281
311 312 312 310 309 307 303 291 294 293 286 283 285 285 285 285 284 280 277 276 272 277 266 264 262 261 262 261 261 273 267 271 268 269 270 278 282 283 283 283 280 280 279 281
311 311 311 310 309 306 303 293 291 289 283 282 284 282 285 287 285 286 278 276 280 278 276 269 265 263 269 261 263 267 272 275 274 275 276 279 282 282 282 281 281 281 281 281
311 311 310 309 308 305 298 294 296 292 287 280 279 286 282 286 287 285 284 281 280 278 275 264 262 263 273 268 271 270 272 274 270 272 276 278 280 280 281 281 280 280 281 281
310 310 310 309 307 304 299 295 293 294 291 277 277 282 283 284 285 283 283 282 279 272 270 265 266 270 271 269 268 267 273 272 273 272 276 276 278 278 280 280 279 279 279 279
309 309 309 308 304 299 295 285 293 291 288 280 275 281 280 282 282 281 278 277 270 267 270 265 268 275 271 264 262 271 274 275 276 275 275 277 277 277 276 277 276 275 275 274
306 308 308 304 301 300 290 288 291 293 290 279 273 273 280 282 281 279 277 275 273 269 264 263 268 270 267 263 263 273 273 276 276 275 277 275 277 276 277 276 274 272 269 268
304 307 306 302 303 296 288 293 295 292 286 282 270 266 272 280 276 275 277 273 269 268 265 265 265 265 262 268 271 268 268 267 269 274 272 273 272 271 268 267 268 267 268 266
304 306 302 293 287 285 287 297 295 292 287 276 267 268 266 278 276 276 275 274 266 269 269 266 267 263 265 270 269 267 271 271 270 269 264 264 268 268 265 264 263 267 265 262
301 296 286 282 285 297 295 287 285 285 284 276 266 266 268 275 274 271 270 268 263 261 264 269 268 265 271 274 271 267 267 272 266 267 267 263 264 266 265 267 266 267 267 264
287 283 281 288 296 287 285 282 283 283 280 273 264 267 270 273 270 271 272 265 262 261 262 261 255 260 267 266 270 275 268 268 269 264 263 272 271 271 269 263 264 260 262 264
288 286 287 285 285 284 281 279 278 274 273 269 269 268 270 268 272 269 268 263 263 261 257 259 258 267 269 261 261 262 270 268 268 260 263 259 263 263 267 267 265 263 260 260
289 286 282 283 282 277 272 272 273 276 273 267 266 266 271 269 270 265 265 265 261 258 260 261 267 270 265 260 256 257 261 264 264 259 255 256 256 253 257 259 256 262 260 258
285 282 277 278 271 274 272 271 275 272 271 273 274 269 271 264 266 265 264 256 258 256 256 265 270 268 268 263 257 265 265 267 266 267 263 261 261 257 254 257 262 264 263 260
284 283 276 277 268 263 259 262 270 267 278 275 273 271 272 267 266 263 259 257 259 263 269 272 270 263 259 260 260 263 267 267 266 264 264 262 260 261 258 254 257 261 262 262
276 270 275 271 268 264 263 271 274 280 280 276 279 273 274 270 268 261 264 265 265 274 271 269 260 260 258 261 261 263 269 269 267 264 263 262 262 262 262 254 255 259 264 263
281 272 269 268 271 275 271 278 277 283 280 275 273 272 275 267 265 262 265 267 276 279 272 260 258 263 260 259 262 262 266 266 265 262 262 259 257 258 258 261 260 256 258 260
Wind_Speed
29 28 27 24 23 21 6 3 2 2 2 5 2 3 6 4 4 2 2 4 4 5 5 2 3 4 5 3 2 1 1 3 6 8 12 5 4 3 1 2 4 5 5 9
32 29 29 29 28 24 7 5 2 2 3 4 2 3 1 4 4 3 5 3 2 3 5 1 4 3 2 2 1 3 2 4 8 11 6 4 2 3 5 6 6 9 5 8
32 32 32 32 31 24 6 5 3 3 3 1 7 5 4 3 2 3 3 4 3 4 2 3 3 2 2 3 1 4 3 3 8 7 9 5 11 14 17 6 5 6 11 19
30 33 34 32 32 26 6 2 4 4 4 5 4 4 7 5 5 2 4 1 5 6 3 2 3 2 4 1 4 3 3 4 4 11 20 17 18 19 18 10 12 6 13 22
30 32 36 37 32 17 3 8 6 1 2 4 8 3 8 11 4 8 5 5 8 7 6 8 8 5 3 4 1 2 2 5 5 8 4 0 15 14 13 14 14 11 13 21
31 35 38 41 40 25 4 0 1 5 5 4 5 6 7 10 10 5 3 7 6 7 12 5 3 5 3 3 6 1 2 1 5 8 10 14 4 4 4 5 11 6 9 20
31 34 35 38 44 34 5 6 4 4 3 4 7 5 4 7 8 7 3 5 5 3 5 6 6 6 3 2 3 2 2 2 2 7 11 5 5 7 7 7 15 2 10 16
30 33 35 36 41 34 3 5 7 5 4 6 3 7 6 5 5 3 5 1 0 5 4 4 7 7 7 4 3 5 4 1 3 1 2 10 6 1 3 1 5 2 12 16
25 32 36 42 46 40 3 3 4 5 8 11 9 6 5 5 4 2 3 3 2 6 4 5 5 4 5 4 7 3 4 4 4 2 1 5 5 0 3 3 5 3 9 14
21 28 35 41 42 40 12 3 3 5 5 2 7 6 9 8 3 3 3 5 2 3 3 3 4 4 3 2 6 7 2 3 6 4 6 11 13 6 1 4 6 9 6 9
21 23 34 40 41 39 13 4 1 5 4 2 2 4 7 5 5 7 5 5 2 3 3 4 5 4 6 1 4 7 9 8 5 4 2 10 7 1 3 4 3 3 5 5
22 23 30 35 37 37 19 4 3 7 7 4 2 4 3 4 2 7 1 2 5 6 6 1 4 1 1 2 4 2 4 9 7 12 11 6 4 5 2 4 2 2 3 4
23 23 32 36 35 38 20 7 6 7 6 3 2 3 4 4 3 0 6 2 4 4 3 5 3 3 5 4 8 3 6 5 5 1 6 14 14 6 4 5 3 3 2 2
22 23 29 33 33 35 15 8 6 8 5 5 2 1 3 4 3 1 2 6 5 6 3 3 4 4 2 4 3 5 7 7 6 7 11 11 15 7 6 5 3 3 3 2
21 30 31 33 37 33 12 7 3 3 5 5 4 4 4 4 4 6 7 6 5 2 3 4 3 2 2 1 2 6 8 9 9 9 7 3 3 0 5 6 5 4 4 3
8 24 31 36 37 35 11 4 3 3 5 7 5 1 2 4 8 11 8 4 4 3 4 2 2 1 3 2 5 10 10 7 5 4 3 4 2 3 3 6 5 2 4 2
11 17 32 39 40 17 7 8 9 14 5 6 5 3 2 2 2 3 3 4 2 3 3 1 2 1 3 2 7 8 8 12 7 3 5 0 4 5 6 6 5 5 4 2
11 6 37 40 30 16 7 3 26 10 8 5 6 1 2 1 2 2 1 3 3 5 3 1 2 3 1 9 17 4 2 0 3 8 3 2 3 5 3 3 4 3 4 2
11 20 36 9 7 4 5 19 13 6 5 6 5 8 6 3 2 2 2 3 2 2 1 2 4 2 11 17 9 8 12 10 5 8 6 2 3 6 5 4 1 5 4 3
37 14 5 4 1 34 16 5 3 2 2 4 4 1 4 5 3 1 3 3 2 2 4 1 4 10 18 18 12 7 8 11 9 7 3 3 5 8 7 10 5 5 5 5
4 3 4 9 18 5 3 4 4 4 3 3 4 4 8 2 5 4 2 4 1 2 4 4 4 10 11 7 13 17 9 10 12 4 2 8 6 8 8 6 8 5 6 6
8 12 8 3 3 4 5 3 4 4 8 3 7 4 5 2 4 5 1 4 2 4 2 3 6 12 9 4 6 6 13 11 11 6 4 4 5 4 6 6 8 8 5 6
7 4 5 3 3 5 9 10 4 5 6 6 5 4 5 4 3 5 4 5 4 1 2 8 12 7 5 6 4 3 4 8 7 6 2 4 4 2 4 5 3 8 7 5
4 5 8 5 5 9 8 5 7 5 6 12 8 5 5 3 5 3 7 1 2 2 2 12 7 8 7 5 4 9 11 11 10 11 8 6 6 5 3 4 6 9 8 7
4 4 6 7 3 4 4 1 5 1 13 11 7 5 4 3 6 3 6 3 5 8 9 7 5 5 3 4 5 7 11 10 8 7 8 8 7 6 5 3 5 6 8 8
5 3 5 2 6 4 4 3 8 8 13 4 4 6 4 1 6 4 10 8 9 7 7 5 2 4 4 6 6 5 8 11 8 8 7 6 8 7 6 4 3 4 8 9
6 2 2 4 4 7 5 7 5 13 12 5 6 8 7 6 2 4 7 9 7 5 4 3 4 5 3 2 6 6 7 9 8 7 6 4 5 6 5 6 6 4 4 4
Wind_Direction
191 182 174 170 166 154 111 122 88 309 56 57 57 146 181 197 152 139 111 114 119 168 155 199 252 246 213 29 124 104 209 229 279 267 286 259 225 196 12 251 315 267 261 275
187 180 173 170 167 160 132 121 128 339 88 156 266 300 174 184 142 183 167 143 162 159 160 4 221 257 286 315 153 132 222 311 312 339 3 24 10 291 277 311 264 244 264 279
188 179 176 171 170 167 101 120 112 343 60 175 139 144 208 192 203 154 155 134 130 96 52 216 259 256 294 360 276 303 180 230 193 217 257 336 297 293 296 279 267 282 271 297
192 184 173 171 174 169 117 109 208 187 186 244 174 145 143 140 174 213 170 123 198 160 174 297 238 256 298 45 358 71 85 245 214 249 264 273 268 275 286 291 269 271 296 303
185 184 171 168 174 165 41 142 150 29 121 140 120 196 210 170 193 159 218 203 183 170 185 188 202 158 209 226 24 125 78 274 307 290 287 28 287 272 259 265 286 276 299 314
195 190 180 169 165 153 165 321 54 102 153 162 124 205 196 191 145 227 201 180 131 200 240 190 194 187 173 185 154 226 249 280 352 272 320 312 349 254 250 275 270 292 334 313
198 191 183 176 167 180 127 162 125 128 163 195 202 168 149 166 194 159 163 144 147 164 104 93 50 48 358 239 239 163 133 358 285 283 332 12 247 295 249 257 282 282 300 310
196 188 179 175 173 183 127 161 136 143 147 175 143 147 124 97 130 97 136 154 167 122 61 49 18 342 18 333 357 197 209 213 290 308 245 290 295 39 338 320 298 25 318 330
205 191 178 177 177 178 140 128 103 106 123 215 127 141 140 142 155 36 71 44 345 76 74 67 130 235 216 313 352 277 198 207 123 34 337 239 250 129 317 178 290 17 347 339
205 188 182 180 180 178 161 140 139 107 119 192 137 161 175 126 122 113 136 163 105 33 92 91 153 250 206 240 166 185 191 204 209 213 266 282 254 270 200 51 289 347 346 340
202 202 184 182 183 177 162 113 40 138 92 72 48 139 143 130 171 153 165 83 302 56 102 141 204 145 221 94 203 179 172 156 201 166 214 284 194 219 163 232 303 316 324 343
205 200 190 189 180 171 154 113 95 81 80 96 33 62 72 84 98 128 154 138 169 159 93 257 98 142 71 160 270 185 245 193 179 186 215 251 232 210 146 178 226 324 297 334
203 194 188 182 182 167 163 134 144 83 99 65 100 91 8 62 25 234 123 284 173 163 131 154 169 173 131 174 241 240 245 176 230 145 264 239 253 262 214 182 203 130 228 333
206 190 188 179 168 164 131 147 149 92 105 119 117 7 48 327 13 81 78 127 76 100 82 105 135 141 162 224 247 209 207 138 198 269 282 276 270 229 186 168 138 141 141 70
211 190 182 173 163 153 114 81 51 74 125 121 109 89 1 0 80 79 78 94 95 102 77 79 230 127 106 307 346 245 186 193 181 218 224 169 237 95 114 139 159 161 142 142
168 181 177 168 143 132 119 74 319 150 121 113 117 71 44 36 76 69 63 62 74 79 115 198 295 318 112 158 242 252 212 219 183 197 180 195 96 181 128 138 149 139 123 94
104 194 160 146 148 147 136 177 160 149 108 95 103 100 72 17 62 53 45 49 58 94 105 61 150 279 109 173 241 240 214 218 209 178 126 219 206 217 154 128 121 116 106 87
131 152 156 143 133 88 50 95 127 120 89 84 118 98 96 221 92 93 345 72 22 0 140 55 134 353 91 255 240 235 218 47 244 208 189 184 109 85 83 82 128 107 136 158
74 142 125 88 56 106 108 113 87 69 100 128 107 141 172 136 99 110 57 97 63 310 145 252 103 228 228 227 222 201 204 195 208 146 131 117 186 177 167 135 134 154 191 184
117 114 65 88 146 119 109 25 77 77 70 55 98 82 127 139 132 118 107 66 178 167 250 130 223 254 262 254 222 206 189 186 134 105 216 195 242 202 196 207 191 184 176 164
78 129 84 120 120 79 86 133 132 131 144 117 157 146 131 273 124 144 99 163 170 122 249 159 267 269 247 227 218 209 183 175 195 166 196 183 179 176 193 211 211 188 174 181
132 102 90 96 98 83 110 118 97 156 190 138 131 173 131 150 114 106 193 117 68 218 124 80 264 249 244 212 225 213 173 174 185 183 203 220 193 182 183 178 179 193 171 157
97 86 101 151 116 135 176 167 191 166 164 171 161 116 116 100 79 80 112 124 199 65 85 233 236 260 266 226 161 169 148 140 131 165 188 137 146 137 161 180 193 150 155 162
119 130 141 154 176 217 187 160 132 151 130 138 123 106 119 142 83 136 106 257 95 69 267 236 247 235 246 174 190 140 169 171 172 184 172 180 169 182 233 192 153 147 161 166
110 117 175 202 166 52 88 83 93 79 143 137 108 78 92 89 101 55 115 61 246 214 230 231 249 247 222 166 186 163 152 163 172 163 169 177 170 175 170 178 153 142 136 153
113 95 119 104 65 5 60 155 116 138 150 114 69 101 69 107 115 116 213 145 221 239 222 240 271 248 211 179 194 197 158 165 157 163 160 152 174 172 166 144 128 140 156 167
161 136 78 140 114 147 160 150 158 158 150 144 123 133 182 112 128 242 189 204 221 213 241 231 223 237 246 216 149 171 151 150 150 146 154 140 111 116 107 155 208 171 175 167